Sparrevohn, AK

8:37 AM AKDT on May 22, 2018 (GMT -0800)
Sparrevohn LRRS

Weather History for PASV - January, 2013

Change the Weather History Date:

Thursday, January 31, 2013

  Actual Average Record
Temperature  
Mean Temperature 24 °F -  
Max Temperature 32 °F 17 °F 48 °F (2007)
Min Temperature 16 °F 3 °F -41 °F (1999)
Degree Days  
Heating Degree Days 41    
Moisture  
Dew Point 23 °F    
Average Humidity 96    
Maximum Humidity 100    
Minimum Humidity 86    
Precipitation  
Precipitation 0.02 in - - ()
Sea Level Pressure  
Sea Level Pressure 29.88 in    
Wind  
Wind Speed 5 mph (NW)    
Max Wind Speed 12 mph    
Max Gust Speed 20 mph    
Visibility 7 miles    
Events Fog , Rain , Snow    
Averages and records for this station are not official NWS values.
T = Trace of Precipitation, MM = Missing Value Source: NWS Daily Summary

Daily Weather History Graph

Daily Weather History Graph

Search for Another Location

Airport or City:

Astronomy

Jan. 31, 2013 Rise Set
Actual Time 9:43 AM AKST 5:29 PM AKST
Civil Twilight 8:53 AM AKST 6:18 PM AKST
Nautical Twilight 8:01 AM AKST 7:11 PM AKST
Astronomical Twilight 7:10 AM AKST 8:01 PM AKST
Moon No Moon Rise 10:11 AM AKST (1/31)
Length of Visible Light 9h 24m
Length of Day
7h 45m
Waning Gibbous, 78% of the Moon is Illuminated
Jan 31
Waning Gibbous
Feb 3
Last Quarter
Feb 9
New
Feb 17
First Quarter
Feb 25
Full

Hourly Weather History & Observations

Time (AKST) Temp. Windchill Dew Point Humidity Pressure Visibility Wind Dir Wind Speed Gust Speed Precip Events Conditions
12:01 AM 32.0 °F 24.8 °F 32.0 °F 100% 29.67 in 4.0 mi SW 8.1 mph - N/A   Overcast
12:46 AM 32.0 °F 24.8 °F 32.0 °F 100% 29.70 in 6.0 mi South 8.1 mph 16.1 mph N/A   Overcast
12:55 AM 31.1 °F 23.7 °F 31.3 °F 100% 29.70 in 6.0 mi South 8.1 mph 16.1 mph N/A   Overcast
1:16 AM 32.0 °F 25.6 °F 32.0 °F 100% 29.71 in 2.5 mi SSW 6.9 mph - N/A   Mist
1:31 AM - - - N/A% 29.71 in 1.5 mi Variable 4.6 mph - N/A   Light Drizzle
1:55 AM - - - N/A% 29.73 in 0.8 mi SW 6.9 mph - N/A Fog , Rain Light Rain Showers
2:16 AM - - - N/A% 29.73 in 0.5 mi Variable 4.6 mph - N/A Fog , Rain Light Rain Showers
3:55 AM - - - N/A% 29.77 in 0.8 mi Variable 2.3 mph - N/A Fog , Rain Light Rain
4:01 AM - - - N/A% 29.77 in 0.8 mi Variable 3.5 mph - N/A Fog , Rain Light Rain
4:31 AM 30.2 °F - 30.2 °F 100% 29.77 in 1.2 mi West 2.3 mph - N/A Rain Light Freezing Rain
4:46 AM 30.2 °F - 30.2 °F 100% 29.77 in 2.0 mi WNW 2.3 mph - N/A Rain Light Freezing Rain
4:55 AM - - - N/A% 29.78 in 3.0 mi Variable 2.3 mph - N/A Rain Light Rain
5:16 AM - - - N/A% 29.78 in 2.5 mi WNW 2.3 mph - N/A   Overcast
5:31 AM 28.4 °F 19.1 °F 28.4 °F 100% 29.78 in 2.0 mi NW 10.4 mph - N/A Rain , Snow Light Freezing Rain
5:46 AM 26.6 °F 16.8 °F 26.6 °F 100% 29.79 in 2.5 mi NW 10.4 mph - N/A Snow Light Snow
5:55 AM 27.3 °F 18.4 °F 26.1 °F 95% 29.79 in 4.0 mi NW 9.2 mph - N/A Snow Light Snow
6:16 AM 26.6 °F - 26.6 °F 100% 29.80 in 4.0 mi Variable 2.3 mph - N/A Snow Light Snow
6:46 AM 24.8 °F 16.9 °F 24.8 °F 100% 29.81 in 5.0 mi NW 6.9 mph 19.6 mph N/A Snow Light Snow
6:55 AM 25.5 °F 19.9 °F 25.3 °F 99% 29.81 in 3.0 mi NNW 4.6 mph 16.1 mph 0.00 in Snow Light Snow
7:01 AM 24.8 °F 14.0 °F 23.0 °F 93% 29.81 in 2.0 mi NW 11.5 mph 16.1 mph N/A Snow Light Snow
7:16 AM 24.8 °F 16.9 °F 23.0 °F 93% 29.82 in 3.0 mi NW 6.9 mph 16.1 mph N/A Snow Light Snow
7:31 AM 24.8 °F 20.5 °F 24.8 °F 100% 29.83 in 1.8 mi South 3.5 mph - N/A Snow Light Snow
7:46 AM 24.8 °F - 24.8 °F 100% 29.83 in 3.0 mi Variable 1.2 mph - N/A Snow Light Snow
7:55 AM 24.6 °F - 23.7 °F 96% 29.83 in 6.0 mi Variable 2.3 mph - N/A Snow Light Snow
8:55 AM 25.0 °F - 24.3 °F 97% 29.84 in 10.0 mi Variable 2.3 mph - N/A Snow Light Snow
9:46 AM 24.8 °F - 23.0 °F 93% 29.88 in 10.0 mi Variable 2.3 mph - N/A Snow Light Snow
9:55 AM 24.8 °F - 23.0 °F 93% 29.78 in 8.0 mi Variable 2.3 mph - N/A Snow Light Snow
10:01 AM 24.8 °F - 23.0 °F 93% 29.88 in 5.0 mi Variable 2.3 mph - N/A Snow Light Snow
10:55 AM 24.1 °F - 23.9 °F 99% 29.90 in 10.0 mi West 2.3 mph - N/A Snow Light Snow
11:31 AM 24.8 °F - 23.0 °F 93% 29.91 in 10.0 mi Variable 2.3 mph - N/A   Overcast
11:55 AM 24.1 °F - 23.0 °F 96% 29.91 in 10.0 mi South 2.3 mph - 0.00 in   Mostly Cloudy
12:31 PM 24.8 °F - 23.0 °F 93% 29.93 in 10.0 mi Variable 2.3 mph - N/A   Overcast
12:46 PM 24.8 °F - 23.0 °F 93% 29.94 in 10.0 mi Variable 2.3 mph - N/A   Overcast
12:55 PM 24.6 °F 16.7 °F 22.5 °F 91% 29.94 in 10.0 mi Variable 6.9 mph - N/A   Overcast
1:01 PM 24.8 °F 16.9 °F 21.2 °F 86% 29.93 in 10.0 mi NNE 6.9 mph - N/A   Overcast
1:46 PM 24.8 °F 20.5 °F 23.0 °F 93% 29.94 in 10.0 mi North 3.5 mph - N/A   Overcast
1:55 PM 25.7 °F - 23.2 °F 90% 29.94 in 10.0 mi Variable 2.3 mph - N/A   Overcast
2:16 PM 24.8 °F 20.5 °F 23.0 °F 93% 29.95 in 10.0 mi Variable 3.5 mph - N/A Snow Light Snow
2:46 PM 24.8 °F 15.3 °F 23.0 °F 93% 29.95 in 10.0 mi NNE 9.2 mph 15.0 mph N/A Snow Light Snow Showers
2:55 PM 24.3 °F 15.4 °F 22.3 °F 92% 29.95 in 10.0 mi North 8.1 mph - N/A   Overcast
3:01 PM 24.8 °F 16.1 °F 23.0 °F 93% 29.96 in 10.0 mi North 8.1 mph - N/A   Overcast
3:55 PM 23.9 °F 16.8 °F 21.0 °F 89% 29.96 in 10.0 mi North 5.8 mph - N/A   Overcast
4:16 PM 23.0 °F 17.0 °F 21.2 °F 93% 29.96 in 10.0 mi North 4.6 mph - N/A   Overcast
4:31 PM 23.0 °F 18.4 °F 21.2 °F 93% 29.96 in 10.0 mi NNW 3.5 mph - N/A   Mostly Cloudy
4:46 PM 23.0 °F 18.4 °F 21.2 °F 93% 29.96 in 10.0 mi Variable 3.5 mph - N/A   Scattered Clouds
4:55 PM 22.8 °F - 20.5 °F 91% 29.96 in 10.0 mi West 2.3 mph - N/A   Partly Cloudy
5:16 PM 21.2 °F 16.4 °F 21.2 °F 100% 29.96 in 10.0 mi WNW 3.5 mph - N/A   Mostly Cloudy
5:55 PM 21.6 °F - 19.9 °F 93% 29.96 in 10.0 mi NW 2.3 mph - N/A   Overcast
6:46 PM 21.2 °F 10.9 °F 21.2 °F 100% 29.95 in 10.0 mi ENE 9.2 mph 15.0 mph N/A   Partly Cloudy
6:55 PM 21.7 °F 13.2 °F 20.5 °F 95% 29.95 in 10.0 mi ENE 6.9 mph - N/A   Partly Cloudy
7:55 PM 19.2 °F 11.3 °F 18.9 °F 98% 29.96 in 10.0 mi NE 5.8 mph - N/A   Partly Cloudy
8:16 PM 17.6 °F 12.3 °F 17.6 °F 100% 29.96 in 10.0 mi NE 3.5 mph - N/A   Mostly Cloudy
8:55 PM 18.1 °F 12.9 °F 18.1 °F 100% 29.96 in 10.0 mi Variable 3.5 mph - N/A   Mostly Cloudy
9:01 PM 17.6 °F 12.3 °F 17.6 °F 100% 29.96 in 10.0 mi NNE 3.5 mph - N/A   Scattered Clouds
9:55 PM 17.4 °F 10.4 °F 16.7 °F 97% 29.98 in 10.0 mi West 4.6 mph - N/A   Clear
10:31 PM 17.6 °F - 17.6 °F 100% 30.00 in 10.0 mi West 2.3 mph - N/A   Mostly Cloudy
10:55 PM 16.7 °F 11.2 °F 16.5 °F 99% 29.99 in 6.0 mi NE 3.5 mph - N/A   Overcast
11:01 PM 17.6 °F - 17.6 °F 100% 29.98 in 1.2 mi NNE 2.3 mph - N/A   Mostly Cloudy
11:16 PM 17.6 °F 12.3 °F 17.6 °F 100% 29.97 in 1.0 mi NNE 3.5 mph - N/A Fog Light Freezing Fog
11:31 PM 17.6 °F 10.7 °F 17.6 °F 100% 29.97 in 9.0 mi Variable 4.6 mph - N/A   Scattered Clouds
11:46 PM 17.6 °F 12.3 °F 17.6 °F 100% 29.97 in 10.0 mi SW 3.5 mph - N/A Snow Light Snow Showers
11:55 PM 18.5 °F - 18.3 °F 99% 29.97 in 10.0 mi Variable 1.2 mph - N/A   Clear